Albany, GA

5:49 AM EDT on May 25, 2018 (GMT -0400)
Southwest Georgia Regional

Weather History for KABY - January, 2013

Change the Weather History Date:

Wednesday, January 16, 2013

  Actual Average Record
Temperature  
Mean Temperature 71 °F 49 °F  
Max Temperature 80 °F 61 °F 80 °F (2013)
Min Temperature 62 °F 38 °F 18 °F (1972)
Degree Days  
Heating Degree Days 0 16  
Month to date heating degree days 109 256  
Since 1 July heating degree days 761 969  
Cooling Degree Days 6 0  
Month to date cooling degree days 25 0  
Year to date cooling degree days 25 0  
Growing Degree Days 20 (Base 50)    
Moisture  
Dew Point 63 °F    
Average Humidity 76    
Maximum Humidity 93    
Minimum Humidity 58    
Precipitation  
Precipitation 0.21 in 0.15 in 0.85 in (2008)
Month to date precipitation 0.35 2.11  
Year to date precipitation 0.35 2.11  
Sea Level Pressure  
Sea Level Pressure 30.01 in    
Wind  
Wind Speed 9 mph (SSW)    
Max Wind Speed 18 mph    
Max Gust Speed 24 mph    
Visibility 8 miles    
Events Rain    
T = Trace of Precipitation, MM = Missing Value Source: NWS Daily Summary

Daily Weather History Graph

Daily Weather History Graph

Search for Another Location

Airport or City:

Astronomy

Jan. 16, 2013 Rise Set
Actual Time 7:36 AM EST 5:57 PM EST
Civil Twilight 7:10 AM EST 6:23 PM EST
Nautical Twilight 6:40 AM EST 6:53 PM EST
Astronomical Twilight 6:11 AM EST 7:22 PM EST
Moon 10:35 AM EST (1/16) 11:22 PM EST (1/16)
Length of Visible Light 11h 13m
Length of Day
10h 20m
Waxing Crescent, 28% of the Moon is Illuminated
Jan 16
Waxing Crescent
Jan 18
First Quarter
Jan 26
Full
Feb 3
Last Quarter
Feb 10
New

Hourly Weather History & Observations

Time (EST) Temp. Dew Point Humidity Pressure Visibility Wind Dir Wind Speed Gust Speed Precip Events Conditions
12:02 AM 64.4 °F 60.8 °F 88% 30.04 in 10.0 mi South 4.6 mph - N/A   Mostly Cloudy
12:53 AM 64.9 °F 62.1 °F 90% 30.04 in 10.0 mi South 9.2 mph - N/A   Overcast
1:53 AM 64.9 °F 62.1 °F 90% 30.03 in 10.0 mi South 5.8 mph - N/A   Overcast
2:34 AM 64.4 °F 62.6 °F 94% 30.03 in 10.0 mi South 8.1 mph - N/A   Overcast
2:53 AM 64.9 °F 62.1 °F 90% 30.02 in 10.0 mi South 6.9 mph - N/A   Overcast
3:53 AM 64.9 °F 62.1 °F 90% 30.02 in 10.0 mi SSW 8.1 mph - N/A   Overcast
4:17 AM 66.2 °F 62.6 °F 88% 30.01 in 10.0 mi SSW 6.9 mph - N/A   Overcast
4:53 AM 64.9 °F 62.1 °F 90% 29.99 in 10.0 mi SSE 5.8 mph - N/A   Overcast
5:45 AM 62.6 °F 60.8 °F 94% 30.00 in 9.0 mi Calm Calm - N/A   Mostly Cloudy
5:53 AM 64.0 °F 62.1 °F 93% 30.01 in 9.0 mi WSW 3.5 mph - N/A   Mostly Cloudy
6:32 AM 64.4 °F 62.6 °F 94% 30.01 in 9.0 mi South 5.8 mph - N/A   Overcast
6:53 AM 64.9 °F 63.0 °F 93% 30.02 in 10.0 mi SSW 12.7 mph - N/A   Overcast
7:53 AM 64.9 °F 63.0 °F 93% 30.04 in 10.0 mi SSW 9.2 mph - N/A   Overcast
8:53 AM 66.0 °F 63.0 °F 90% 30.05 in 10.0 mi South 11.5 mph - N/A   Mostly Cloudy
9:53 AM 68.0 °F 62.1 °F 81% 30.06 in 10.0 mi South 11.5 mph - N/A   Mostly Cloudy
10:53 AM 72.0 °F 63.0 °F 73% 30.05 in 10.0 mi SSW 6.9 mph 18.4 mph 0.00 in   Mostly Cloudy
11:53 AM 75.0 °F 63.0 °F 66% 30.01 in 10.0 mi South 15.0 mph 20.7 mph N/A   Mostly Cloudy
12:00 PM 75.2 °F 62.6 °F 65% 30.02 in 10.0 mi SW 12.7 mph 20.7 mph N/A   Mostly Cloudy
12:53 PM 77.0 °F 63.0 °F 62% 29.99 in 10.0 mi South 16.1 mph 21.9 mph N/A   Mostly Cloudy
1:53 PM 78.1 °F 63.0 °F 60% 29.97 in 10.0 mi SSW 12.7 mph - N/A   Mostly Cloudy
3:53 PM 79.0 °F 62.1 °F 56% 29.94 in 10.0 mi South 15.0 mph - N/A   Scattered Clouds
4:53 PM 77.0 °F 62.1 °F 60% 29.95 in 10.0 mi SSW 8.1 mph - N/A   Mostly Cloudy
5:53 PM 75.0 °F 62.1 °F 64% 29.96 in 10.0 mi South 12.7 mph - N/A   Overcast
6:53 PM 73.0 °F 64.0 °F 73% 29.98 in 10.0 mi SSW 10.4 mph - 0.00 in   Overcast
7:53 PM 72.0 °F 64.0 °F 76% 29.99 in 10.0 mi SSW 11.5 mph - 0.00 in   Overcast
8:45 PM 69.8 °F 64.4 °F 83% 30.01 in 10.0 mi WNW 9.2 mph - 0.00 in Rain Light Rain
8:53 PM 69.1 °F 64.0 °F 84% 30.01 in 10.0 mi WNW 9.2 mph - 0.00 in   Overcast
9:27 PM 66.2 °F 64.4 °F 94% 30.01 in 2.5 mi WSW 5.8 mph - 0.06 in Rain Heavy Rain
9:35 PM 66.2 °F 64.4 °F 94% 30.01 in 1.8 mi WSW 3.5 mph - 0.09 in Rain Light Rain
9:38 PM 66.2 °F 64.4 °F 94% 30.01 in 4.0 mi West 4.6 mph - 0.09 in Rain Light Rain
9:53 PM 66.9 °F 66.0 °F 97% 30.00 in 10.0 mi Calm Calm - 0.09 in Rain Light Rain
10:53 PM 66.0 °F 64.9 °F 96% 29.99 in 10.0 mi Calm Calm - 0.02 in   Overcast
11:10 PM 66.2 °F 64.4 °F 94% 29.99 in 1.8 mi Calm Calm - 0.05 in Rain Heavy Rain
11:17 PM 66.2 °F 64.4 °F 94% 29.99 in 2.5 mi SSW 3.5 mph - 0.06 in Rain Rain
11:26 PM 66.2 °F 64.4 °F 94% 29.99 in 6.0 mi Calm Calm - 0.06 in Rain Light Rain
11:34 PM 66.2 °F 64.4 °F 94% 29.99 in 2.5 mi Calm Calm - 0.09 in Rain Light Rain
11:40 PM 66.2 °F 64.4 °F 94% 29.99 in 1.8 mi Calm Calm - 0.10 in Rain Light Rain
11:43 PM 66.2 °F 64.4 °F 94% 29.99 in 3.0 mi Calm Calm - 0.10 in Rain Light Rain
11:53 PM 66.0 °F 64.9 °F 96% 29.99 in 5.0 mi Calm Calm - 0.10 in Rain Light Rain